PPSAN SBJI-SBJI

Flight info

Callsign PPSAN
Flight time 0h 7m
Altitude 2500
Route DCT 105404S0615116W 105600S0615537W 105711S0615933W 105251S0615632W 105011S0615411W DCT
Aircraft EC30/L-SFG/C

Departure

Time 2026-05-06 03:32
Airport Ji-Paraná Airport (SBJI)

Arrival

Time 2026-05-06 03:40
Airport Ji-Paraná Airport (SBJI)
Time Latitude Longitude Altitude Speed Heading
2026-05-06 03:13 -10.87640 -61.85054 580 ft 0 kts 283°
2026-05-06 03:20 -10.87640 -61.85057 580 ft 1 kts 20°
2026-05-06 03:21 -10.87622 -61.85012 588 ft 15 kts 89°
2026-05-06 03:21 -10.87654 -61.84842 586 ft 26 kts 85°
2026-05-06 03:21 -10.87662 -61.84821 641 ft 26 kts 242°
2026-05-06 03:21 -10.87732 -61.85253 752 ft 95 kts 274°
2026-05-06 03:22 -10.87664 -61.85967 960 ft 109 kts 271°
2026-05-06 03:22 -10.87769 -61.86766 1132 ft 117 kts 258°
2026-05-06 03:22 -10.87958 -61.87598 1115 ft 130 kts 256°
2026-05-06 03:22 -10.88195 -61.88478 1104 ft 125 kts 254°
2026-05-06 03:23 -10.88444 -61.89292 1014 ft 121 kts 253°
2026-05-06 03:23 -10.88514 -61.89985 769 ft 72 kts 310°
2026-05-06 03:23 -10.88206 -61.90024 747 ft 41 kts 43°
2026-05-06 03:23 -10.88172 -61.89779 727 ft 35 kts 139°
2026-05-06 03:24 -10.88288 -61.89702 620 ft 7 kts 235°
2026-05-06 03:24 -10.88317 -61.89729 605 ft 6 kts 271°
2026-05-06 03:24 -10.88324 -61.89743 603 ft 2 kts 270°
2026-05-06 03:24 -10.88329 -61.89738 597 ft 1 kts 260°
2026-05-06 03:25 -10.88337 -61.89752 653 ft 18 kts 213°
2026-05-06 03:25 -10.88700 -61.89921 736 ft 80 kts 220°
2026-05-06 03:25 -10.89188 -61.90031 899 ft 81 kts 130°
2026-05-06 03:25 -10.88917 -61.89683 841 ft 73 kts 11°
2026-05-06 03:26 -10.88525 -61.89703 657 ft 36 kts
2026-05-06 03:26 -10.88379 -61.89726 582 ft 13 kts 26°
2026-05-06 03:26 -10.88315 -61.89723 574 ft 4 kts 291°
2026-05-06 03:26 -10.88314 -61.89727 574 ft 0 kts 281°
2026-05-06 03:27 -10.88311 -61.89733 588 ft 7 kts 270°
2026-05-06 03:28 -10.88372 -61.89769 606 ft 41 kts 178°
2026-05-06 03:28 -10.88350 -61.89675 658 ft 24 kts 358°
2026-05-06 03:28 -10.87918 -61.90103 746 ft 102 kts 307°
2026-05-06 03:28 -10.87517 -61.90809 733 ft 126 kts 290°
2026-05-06 03:29 -10.87374 -61.91395 749 ft 131 kts 279°
2026-05-06 03:29 -10.87440 -61.92319 758 ft 136 kts 249°
2026-05-06 03:29 -10.87995 -61.93096 779 ft 135 kts 227°
2026-05-06 03:29 -10.88495 -61.93770 793 ft 97 kts 251°
2026-05-06 03:30 -10.88553 -61.94178 801 ft 27 kts 139°
2026-05-06 03:30 -10.88567 -61.94239 546 ft 16 kts 14°
2026-05-06 03:30 -10.88404 -61.94089 636 ft 39 kts 56°
2026-05-06 03:30 -10.88285 -61.93855 714 ft 24 kts 206°
2026-05-06 03:31 -10.88361 -61.93861 529 ft 25 kts 282°
2026-05-06 03:31 -10.88361 -61.93935 466 ft 2 kts 346°
2026-05-06 03:31 -10.88350 -61.93937 503 ft 12 kts 316°
2026-05-06 03:31 -10.88157 -61.94142 609 ft 80 kts 308°
2026-05-06 03:32 -10.87747 -61.94738 594 ft 117 kts 302°
2026-05-06 03:32 -10.87271 -61.95464 650 ft 128 kts 302°
2026-05-06 03:32 -10.86692 -61.96141 885 ft 110 kts 322°
2026-05-06 03:32 -10.86060 -61.96324 1368 ft 87 kts
2026-05-06 03:33 -10.85477 -61.96207 1698 ft 89 kts 19°
2026-05-06 03:33 -10.84928 -61.95863 1928 ft 99 kts 51°
2026-05-06 03:33 -10.84750 -61.95175 2074 ft 113 kts 97°
2026-05-06 03:33 -10.85051 -61.94362 2028 ft 128 kts 109°
2026-05-06 03:34 -10.85299 -61.93534 2288 ft 107 kts 95°
2026-05-06 03:34 -10.85462 -61.92760 2371 ft 117 kts 100°
2026-05-06 03:34 -10.85664 -61.91947 2265 ft 119 kts 103°
2026-05-06 03:34 -10.85877 -61.91145 2007 ft 115 kts 104°
2026-05-06 03:35 -10.86087 -61.90355 1749 ft 116 kts 104°
2026-05-06 03:35 -10.86303 -61.89576 1607 ft 106 kts 113°
2026-05-06 03:35 -10.86841 -61.89183 1643 ft 98 kts 172°
2026-05-06 03:35 -10.87521 -61.89423 1949 ft 122 kts 207°
2026-05-06 03:36 -10.88285 -61.90015 1972 ft 152 kts 218°
2026-05-06 03:36 -10.88982 -61.90910 1804 ft 168 kts 237°
2026-05-06 03:36 -10.89514 -61.91972 1686 ft 166 kts 246°
2026-05-06 03:36 -10.90162 -61.92873 1670 ft 158 kts 215°
2026-05-06 03:37 -10.91165 -61.93252 1657 ft 153 kts 188°
2026-05-06 03:37 -10.92221 -61.93264 1645 ft 152 kts 173°
2026-05-06 03:37 -10.93265 -61.93123 1642 ft 151 kts 168°
2026-05-06 03:37 -10.94298 -61.92962 1653 ft 151 kts 173°
2026-05-06 03:38 -10.95306 -61.93235 1640 ft 152 kts 207°
2026-05-06 03:38 -10.96129 -61.93903 1648 ft 153 kts 222°
2026-05-06 03:38 -10.96813 -61.94700 1640 ft 140 kts 236°
2026-05-06 03:38 -10.97433 -61.95492 1614 ft 144 kts 235°
2026-05-06 03:39 -10.97746 -61.96457 1631 ft 147 kts 263°
2026-05-06 03:39 -10.97638 -61.97476 1529 ft 144 kts 297°
2026-05-06 03:39 -10.96954 -61.98082 1398 ft 122 kts 334°
2026-05-06 03:39 -10.96284 -61.98398 1095 ft 90 kts 339°
2026-05-06 03:40 -10.95806 -61.98699 835 ft 78 kts 316°
2026-05-06 03:40 -10.95500 -61.99130 629 ft 63 kts 309°
2026-05-06 03:40 -10.95389 -61.99327 621 ft 23 kts 319°
2026-05-06 03:40 -10.95288 -61.99473 612 ft 20 kts 308°
2026-05-06 03:41 -10.95292 -61.99531 598 ft 0 kts 226°
2026-05-06 03:41 -10.95292 -61.99530 598 ft 0 kts 213°